,,,PA_Meas_PMT16A,,PR_Meas_QMR101_102,,RH_Meas_QMH101,,SR_Meas_QMS101,,TA_Meas_QMH101,,GenWind,,GenWind,
date,time,status,PA,status,PR,status,RH,status,SR,status,TA,status,DirAvg,status,SpdAvg,
2009-06-20, 00:00:04,VALID,1001.57,VALID,0,VALID,92.7228,VALID,0,VALID,22.8835,VALID,298,VALID,0.358984,
2009-06-20, 00:01:04,VALID,1001.55,VALID,0,VALID,92.7838,VALID,0,VALID,22.8623,VALID,298,VALID,0.404297,
2009-06-20, 00:02:04,VALID,1001.51,VALID,0,VALID,92.9288,VALID,0,VALID,22.903,VALID,298,VALID,0.358594,
2009-06-20, 00:03:04,VALID,1001.51,VALID,0,VALID,92.8754,VALID,0,VALID,22.8818,VALID,298,VALID,0.204297,
2009-06-20, 00:04:04,VALID,1001.53,VALID,0,VALID,92.6694,VALID,0,VALID,22.8818,VALID,298,VALID,0.164453,
2009-06-20, 00:05:04,VALID,1001.52,VALID,0,VALID,92.6388,VALID,0,VALID,22.8818,VALID,328,VALID,0.716016,
2009-06-20, 00:06:04,VALID,1001.5,VALID,0,VALID,92.6312,VALID,0,VALID,22.8623,VALID,344,VALID,0.907031,
2009-06-20, 00:07:04,VALID,1001.51,VALID,0,VALID,92.532,VALID,0,VALID,22.8427,VALID,351,VALID,1.06992,
2009-06-20, 00:08:04,VALID,1001.47,VALID,0,VALID,92.4939,VALID,0,VALID,22.8445,VALID,359,VALID,1.08672,
2009-06-20, 00:09:04,VALID,1001.46,VALID,0,VALID,92.5397,VALID,0,VALID,22.8037,VALID,359,VALID,1.01914,
2009-06-20, 00:10:04,VALID,1001.43,VALID,0,VALID,92.5397,VALID,0,VALID,22.7842,VALID,1,VALID,0.912891,
2009-06-20, 00:11:04,VALID,1001.4,VALID,0,VALID,92.5931,VALID,0,VALID,22.786,VALID,2,VALID,0.764844,
2009-06-20, 00:12:04,VALID,1001.37,VALID,0,VALID,92.6617,VALID,0,VALID,22.7664,VALID,7,VALID,0.961719,
2009-06-20, 00:13:04,VALID,1001.34,VALID,0,VALID,92.8601,VALID,0,VALID,22.7452,VALID,22,VALID,1.07422,
2009-06-20, 00:14:04,VALID,1001.33,VALID,0,VALID,92.9745,VALID,0,VALID,22.7664,VALID,23,VALID,1.10195,
2009-06-20, 00:15:04,VALID,1001.33,VALID,0,VALID,92.9822,VALID,0,VALID,22.786,VALID,27,VALID,1.17344,
2009-06-20, 00:16:04,VALID,1001.33,VALID,0,VALID,92.9364,VALID,0,VALID,22.7842,VALID,28,VALID,1.02383,
2009-06-20, 00:17:04,VALID,1001.3,VALID,0,VALID,92.7685,VALID,0,VALID,22.7842,VALID,28,VALID,1.09297,
2009-06-20, 00:18:04,VALID,1001.33,VALID,0,VALID,92.6923,VALID,0,VALID,22.7647,VALID,28,VALID,1.01328,
2009-06-20, 00:19:04,VALID,1001.32,VALID,0,VALID,92.6465,VALID,0,VALID,22.7647,VALID,27,VALID,1.04258,
2009-06-20, 00:20:04,VALID,1001.32,VALID,0,VALID,92.5091,VALID,0,VALID,22.7452,VALID,21,VALID,1.04883,
2009-06-20, 00:21:04,VALID,1001.31,VALID,0,VALID,92.471,VALID,0,VALID,22.7452,VALID,20,VALID,0.927344,
2009-06-20, 00:22:04,VALID,1001.31,VALID,0,VALID,92.4634,VALID,0,VALID,22.7257,VALID,17,VALID,0.849609,
2009-06-20, 00:23:04,VALID,1001.29,VALID,0,VALID,92.4786,VALID,0,VALID,22.7062,VALID,17,VALID,0.686719,
2009-06-20, 00:24:04,VALID,1001.32,VALID,0,VALID,92.4634,VALID,0,VALID,22.7062,VALID,17,VALID,0.655469,
2009-06-20, 00:25:04,VALID,1001.29,VALID,0,VALID,92.6465,VALID,0,VALID,22.7062,VALID,17,VALID,0.451562,
2009-06-20, 00:26:04,VALID,1001.33,VALID,0,VALID,92.6999,VALID,0,VALID,22.7257,VALID,17,VALID,0.307031,
2009-06-20, 00:27:04,VALID,1001.28,VALID,0,VALID,92.6312,VALID,0.112286,VALID,22.7062,VALID,17,VALID,0.434766,
2009-06-20, 00:28:04,VALID,1001.3,VALID,0,VALID,92.5549,VALID,0,VALID,22.7062,VALID,17,VALID,0.5,
2009-06-20, 00:29:04,VALID,1001.29,VALID,0,VALID,92.4634,VALID,0,VALID,22.6867,VALID,17,VALID,0.747656,
2009-06-20, 00:30:04,VALID,1001.28,VALID,0,VALID,92.3108,VALID,0,VALID,22.6672,VALID,17,VALID,0.528906,
2009-06-20, 00:31:04,VALID,1001.24,VALID,0,VALID,92.2803,VALID,0,VALID,22.6282,VALID,17,VALID,0.494141,
2009-06-20, 00:32:04,VALID,1001.25,VALID,0,VALID,92.2726,VALID,0,VALID,22.6299,VALID,17,VALID,0.308984,
2009-06-20, 00:33:04,VALID,1001.25,VALID,0,VALID,92.3108,VALID,0,VALID,22.6087,VALID,17,VALID,0.276172,
2009-06-20, 00:34:04,VALID,1001.23,VALID,0,VALID,92.4405,VALID,0,VALID,22.6087,VALID,17,VALID,0.389453,
2009-06-20, 00:35:04,VALID,1001.22,VALID,0,VALID,92.5931,VALID,0,VALID,22.6494,VALID,17,VALID,0.514453,
2009-06-20, 00:36:04,VALID,1001.2,VALID,0,VALID,92.616,VALID,0,VALID,22.6477,VALID,16,VALID,0.292578,
2009-06-20, 00:37:04,VALID,1001.19,VALID,0,VALID,92.7533,VALID,0,VALID,22.6867,VALID,16,VALID,0.442578,
2009-06-20, 00:38:04,VALID,1001.21,VALID,0,VALID,92.7685,VALID,0,VALID,22.7062,VALID,6,VALID,0.578125,
2009-06-20, 00:39:04,VALID,1001.2,VALID,0,VALID,92.7533,VALID,0,VALID,22.7469,VALID,6,VALID,0.474219,
2009-06-20, 00:40:04,VALID,1001.19,VALID,0,VALID,92.7457,VALID,0,VALID,22.7274,VALID,6,VALID,0.419531,
2009-06-20, 00:41:04,VALID,1001.2,VALID,0,VALID,92.7914,VALID,0,VALID,22.7257,VALID,6,VALID,0.29375,
2009-06-20, 00:42:04,VALID,1001.18,VALID,0,VALID,92.7609,VALID,0,VALID,22.7469,VALID,6,VALID,0.221094,
2009-06-20, 00:43:04,VALID,1001.16,VALID,0,VALID,92.7914,VALID,0,VALID,22.7274,VALID,6,VALID,0.137891,
2009-06-20, 00:44:04,VALID,1001.17,VALID,0,VALID,92.7914,VALID,0,VALID,22.7274,VALID,6,VALID,0.0160156,
2009-06-20, 00:45:04,VALID,1001.15,VALID,0,VALID,92.7533,VALID,0,VALID,22.6867,VALID,6,VALID,0,
2009-06-20, 00:46:04,VALID,1001.15,VALID,0,VALID,92.7609,VALID,0,VALID,22.6477,VALID,6,VALID,0,
2009-06-20, 00:47:04,VALID,1001.16,VALID,0,VALID,92.8067,VALID,0,VALID,22.6282,VALID,6,VALID,0,
2009-06-20, 00:48:04,VALID,1001.16,VALID,0,VALID,93.0127,VALID,0,VALID,22.6087,VALID,6,VALID,0,
2009-06-20, 00:49:04,VALID,1001.17,VALID,0,VALID,93.1119,VALID,0,VALID,22.6299,VALID,6,VALID,0,
2009-06-20, 00:50:04,VALID,1001.19,VALID,0,VALID,93.1653,VALID,0,VALID,22.6299,VALID,6,VALID,0.200781,
2009-06-20, 00:51:04,VALID,1001.2,VALID,0,VALID,93.0737,VALID,0,VALID,22.5892,VALID,6,VALID,0.349609,
2009-06-20, 00:52:04,VALID,1001.2,VALID,0,VALID,93.2187,VALID,0,VALID,22.5714,VALID,6,VALID,0.357422,
2009-06-20, 00:53:04,VALID,1001.17,VALID,0,VALID,93.3789,VALID,0,VALID,22.5892,VALID,6,VALID,0.448438,
2009-06-20, 00:54:04,VALID,1001.19,VALID,0,VALID,93.5163,VALID,0,VALID,22.5696,VALID,6,VALID,0.694141,
2009-06-20, 00:55:04,VALID,1001.18,VALID,0,VALID,93.5468,VALID,0,VALID,22.6104,VALID,6,VALID,0.715625,
2009-06-20, 00:56:04,VALID,1001.2,VALID,0,VALID,93.4094,VALID,0,VALID,22.5892,VALID,6,VALID,0.628906,
2009-06-20, 00:57:04,VALID,1001.23,VALID,0,VALID,93.44,VALID,0,VALID,22.5696,VALID,6,VALID,0.675,
2009-06-20, 00:58:04,VALID,1001.21,VALID,0,VALID,93.3408,VALID,0,VALID,22.5501,VALID,18,VALID,0.505859,
2009-06-20, 00:59:04,VALID,1001.27,VALID,0,VALID,93.4018,VALID,0,VALID,22.5306,VALID,44,VALID,0.757031,
2009-06-20, 01:00:04,VALID,1001.27,VALID,0,VALID,93.5086,VALID,0,VALID,22.5501,VALID,44,VALID,0.813281,
2009-06-20, 01:01:04,VALID,1001.24,VALID,0,VALID,93.6307,VALID,0,VALID,22.5696,VALID,44,VALID,0.872656,
2009-06-20, 01:02:04,VALID,1001.24,VALID,0,VALID,93.562,VALID,0,VALID,22.5892,VALID,43,VALID,0.771484,
2009-06-20, 01:03:04,VALID,1001.22,VALID,0,VALID,93.5239,VALID,0,VALID,22.5892,VALID,42,VALID,0.873047,
2009-06-20, 01:04:04,VALID,1001.26,VALID,0,VALID,93.5468,VALID,0,VALID,22.6087,VALID,40,VALID,0.848828,
2009-06-20, 01:05:04,VALID,1001.26,VALID,0,VALID,93.5697,VALID,0,VALID,22.6282,VALID,34,VALID,0.812109,
2009-06-20, 01:06:04,VALID,1001.25,VALID,0,VALID,93.6307,VALID,0,VALID,22.6282,VALID,34,VALID,0.806641,
2009-06-20, 01:07:04,VALID,1001.28,VALID,0,VALID,93.5849,VALID,0,VALID,22.6477,VALID,33,VALID,0.60625,
2009-06-20, 01:08:04,VALID,1001.25,VALID,0,VALID,93.5544,VALID,0,VALID,22.6477,VALID,25,VALID,0.787891,
2009-06-20, 01:09:04,VALID,1001.26,VALID,0,VALID,93.5697,VALID,0,VALID,22.6282,VALID,24,VALID,0.912891,
2009-06-20, 01:10:04,VALID,1001.27,VALID,0,VALID,93.501,VALID,0,VALID,22.6282,VALID,7,VALID,0.608594,
2009-06-20, 01:11:04,VALID,1001.29,VALID,0,VALID,93.5697,VALID,0,VALID,22.6087,VALID,7,VALID,0.4875,
2009-06-20, 01:12:04,VALID,1001.28,VALID,0,VALID,93.5544,VALID,0,VALID,22.6087,VALID,7,VALID,0.539063,
2009-06-20, 01:13:04,VALID,1001.23,VALID,0,VALID,93.562,VALID,0,VALID,22.5892,VALID,7,VALID,0.611719,
2009-06-20, 01:14:04,VALID,1001.27,VALID,0,VALID,93.5544,VALID,0,VALID,22.5892,VALID,7,VALID,0.301172,
2009-06-20, 01:15:04,VALID,1001.26,VALID,0,VALID,93.5544,VALID,0,VALID,22.5696,VALID,7,VALID,0.160156,
2009-06-20, 01:16:04,VALID,1001.3,VALID,0,VALID,93.5315,VALID,0,VALID,22.5696,VALID,7,VALID,0.190234,
2009-06-20, 01:17:04,VALID,1001.28,VALID,0,VALID,93.5391,VALID,0,VALID,22.5696,VALID,7,VALID,0.209766,
2009-06-20, 01:18:04,VALID,1001.28,VALID,0,VALID,93.5086,VALID,0,VALID,22.5501,VALID,7,VALID,0.215234,
2009-06-20, 01:19:04,VALID,1001.29,VALID,0,VALID,93.5697,VALID,0,VALID,22.5909,VALID,7,VALID,0.38125,
2009-06-20, 01:20:04,VALID,1001.28,VALID,0,VALID,93.5849,VALID,0,VALID,22.5501,VALID,7,VALID,0.333203,
2009-06-20, 01:21:04,VALID,1001.28,VALID,0,VALID,93.5544,VALID,0,VALID,22.5501,VALID,7,VALID,0.411328,
2009-06-20, 01:22:04,VALID,1001.28,VALID,0,VALID,93.5773,VALID,0,VALID,22.5696,VALID,7,VALID,0.419141,
2009-06-20, 01:23:04,VALID,1001.28,VALID,0,VALID,93.5849,VALID,0,VALID,22.5909,VALID,7,VALID,0.461719,
2009-06-20, 01:24:04,VALID,1001.25,VALID,0,VALID,93.5468,VALID,0,VALID,22.5696,VALID,7,VALID,0.489062,
2009-06-20, 01:25:04,VALID,1001.23,VALID,0,VALID,93.4781,VALID,0,VALID,22.5892,VALID,7,VALID,0.535156,
2009-06-20, 01:26:04,VALID,1001.22,VALID,0,VALID,93.4018,VALID,0,VALID,22.6299,VALID,7,VALID,0.529688,
2009-06-20, 01:27:04,VALID,1001.23,VALID,0,VALID,93.3484,VALID,0,VALID,22.6282,VALID,7,VALID,0.410156,
2009-06-20, 01:28:04,VALID,1001.24,VALID,0,VALID,93.3179,VALID,0,VALID,22.6282,VALID,7,VALID,0.359766,
2009-06-20, 01:29:04,VALID,1001.24,VALID,0,VALID,93.2874,VALID,0,VALID,22.6477,VALID,7,VALID,0.405078,
2009-06-20, 01:30:04,VALID,1001.23,VALID,0,VALID,93.2263,VALID,0,VALID,22.6689,VALID,7,VALID,0.36875,
2009-06-20, 01:31:04,VALID,1001.22,VALID,0,VALID,93.2721,VALID,0,VALID,22.6672,VALID,7,VALID,0.319922,
2009-06-20, 01:32:04,VALID,1001.2,VALID,0,VALID,93.234,VALID,0,VALID,22.6867,VALID,7,VALID,0.426172,
2009-06-20, 01:33:04,VALID,1001.21,VALID,0,VALID,93.1424,VALID,0,VALID,22.6867,VALID,7,VALID,0.389844,
2009-06-20, 01:34:04,VALID,1001.18,VALID,0,VALID,93.0127,VALID,0,VALID,22.7062,VALID,7,VALID,0.429297,
2009-06-20, 01:35:04,VALID,1001.17,VALID,0,VALID,92.9288,VALID,0,VALID,22.6867,VALID,7,VALID,0.445703,
2009-06-20, 01:36:04,VALID,1001.16,VALID,0,VALID,92.8448,VALID,0,VALID,22.7274,VALID,7,VALID,0.358594,
2009-06-20, 01:37:04,VALID,1001.16,VALID,0,VALID,92.822,VALID,0,VALID,22.7062,VALID,7,VALID,0.326562,
2009-06-20, 01:38:04,VALID,1001.12,VALID,0,VALID,92.8983,VALID,0,VALID,22.7257,VALID,7,VALID,0.269922,
2009-06-20, 01:39:04,VALID,1001.1,VALID,0,VALID,92.944,VALID,0,VALID,22.7647,VALID,7,VALID,0.246094,
2009-06-20, 01:40:04,VALID,1001.08,VALID,0,VALID,92.944,VALID,0,VALID,22.7842,VALID,7,VALID,0.247266,
2009-06-20, 01:41:04,VALID,1001.07,VALID,0,VALID,92.9364,VALID,0,VALID,22.7842,VALID,7,VALID,0.0398437,
2009-06-20, 01:42:04,VALID,1001.06,VALID,0,VALID,92.9059,VALID,0,VALID,22.7842,VALID,7,VALID,0,
2009-06-20, 01:43:04,VALID,1001.06,VALID,0,VALID,92.9364,VALID,0,VALID,22.7842,VALID,7,VALID,0,
2009-06-20, 01:44:04,VALID,1001.06,VALID,0,VALID,92.9974,VALID,0,VALID,22.7842,VALID,7,VALID,0,
2009-06-20, 01:45:04,VALID,1001.06,VALID,0,VALID,93.0356,VALID,0,VALID,22.7842,VALID,7,VALID,0.157422,
2009-06-20, 01:46:04,VALID,1001.07,VALID,0,VALID,93.1043,VALID,0,VALID,22.7842,VALID,7,VALID,0.135937,
2009-06-20, 01:47:04,VALID,1001.07,VALID,0,VALID,93.0966,VALID,0,VALID,22.8055,VALID,7,VALID,0.0167969,
2009-06-20, 01:48:04,VALID,1001.06,VALID,0,VALID,93.0661,VALID,0,VALID,22.7647,VALID,7,VALID,0,
2009-06-20, 01:49:04,VALID,1001.07,VALID,0,VALID,93.0737,VALID,0.112286,VALID,22.7647,VALID,7,VALID,0,
2009-06-20, 01:50:04,VALID,1001.09,VALID,0,VALID,93.1348,VALID,0,VALID,22.7647,VALID,7,VALID,0,
2009-06-20, 01:51:04,VALID,1001.03,VALID,0,VALID,93.1424,VALID,0,VALID,22.786,VALID,7,VALID,0.391016,
2009-06-20, 01:52:04,VALID,1001.04,VALID,0,VALID,93.1119,VALID,0,VALID,22.7452,VALID,7,VALID,0.339063,
2009-06-20, 01:53:04,VALID,1001.05,VALID,0,VALID,93.0737,VALID,0,VALID,22.7062,VALID,7,VALID,0.509375,
2009-06-20, 01:54:04,VALID,1001.03,VALID,0,VALID,93.0737,VALID,0,VALID,22.6867,VALID,7,VALID,0.520703,
2009-06-20, 01:55:04,VALID,1001.03,VALID,0,VALID,92.8525,VALID,0,VALID,22.6884,VALID,9,VALID,0.786328,
2009-06-20, 01:56:04,VALID,1001.04,VALID,0,VALID,92.8525,VALID,0,VALID,22.6299,VALID,13,VALID,0.902344,
2009-06-20, 01:57:04,VALID,1001.04,VALID,0,VALID,92.9898,VALID,0,VALID,22.6299,VALID,13,VALID,0.895312,
2009-06-20, 01:58:04,VALID,1001.08,VALID,0,VALID,93.0814,VALID,0,VALID,22.6104,VALID,13,VALID,0.804297,
2009-06-20, 01:59:04,VALID,1001.08,VALID,0,VALID,93.15,VALID,0,VALID,22.5696,VALID,13,VALID,0.676562,
2009-06-20, 02:00:04,VALID,1001.1,VALID,0,VALID,93.3713,VALID,0,VALID,22.5714,VALID,13,VALID,0.433203,
2009-06-20, 02:01:04,VALID,1001.13,VALID,0,VALID,93.3179,VALID,0,VALID,22.5501,VALID,13,VALID,0.282422,
2009-06-20, 02:02:04,VALID,1001.12,VALID,0,VALID,93.4171,VALID,0,VALID,22.5696,VALID,13,VALID,0.320703,
2009-06-20, 02:03:04,VALID,1001.14,VALID,0,VALID,93.4934,VALID,0,VALID,22.5909,VALID,13,VALID,0.447266,
2009-06-20, 02:04:04,VALID,1001.12,VALID,0,VALID,93.8443,VALID,0,VALID,22.6087,VALID,72,VALID,0.770312,
2009-06-20, 02:05:04,VALID,1001.12,VALID,0,VALID,93.7757,VALID,0,VALID,22.6689,VALID,72,VALID,0.794922,
2009-06-20, 02:06:04,VALID,1001.09,VALID,0,VALID,93.7223,VALID,0,VALID,22.7079,VALID,72,VALID,0.717969,
2009-06-20, 02:07:04,VALID,1001.09,VALID,0,VALID,93.6307,VALID,0,VALID,22.6884,VALID,82,VALID,0.583203,
2009-06-20, 02:08:04,VALID,1001.05,VALID,0,VALID,93.5697,VALID,0,VALID,22.7079,VALID,111,VALID,0.540234,
2009-06-20, 02:09:04,VALID,1001.07,VALID,0,VALID,93.6688,VALID,0,VALID,22.7274,VALID,112,VALID,0.571875,
2009-06-20, 02:10:04,VALID,1001.09,VALID,0,VALID,93.6307,VALID,0,VALID,22.7274,VALID,112,VALID,0.591406,
2009-06-20, 02:11:04,VALID,1001.06,VALID,0,VALID,93.501,VALID,0,VALID,22.7079,VALID,106,VALID,0.560547,
2009-06-20, 02:12:04,VALID,1001.02,VALID,0,VALID,93.4323,VALID,0,VALID,22.6672,VALID,106,VALID,0.595312,
2009-06-20, 02:13:04,VALID,1001.02,VALID,0,VALID,93.3408,VALID,0,VALID,22.6672,VALID,95,VALID,0.56875,
2009-06-20, 02:14:04,VALID,1000.99,VALID,0,VALID,93.2721,VALID,0,VALID,22.6477,VALID,94,VALID,0.530469,
2009-06-20, 02:15:04,VALID,1000.97,VALID,0,VALID,93.2492,VALID,0,VALID,22.6282,VALID,93,VALID,0.501953,
2009-06-20, 02:16:04,VALID,1000.98,VALID,0,VALID,93.295,VALID,0,VALID,22.6282,VALID,91,VALID,0.582812,
2009-06-20, 02:17:04,VALID,1000.94,VALID,0,VALID,93.3103,VALID,0,VALID,22.6299,VALID,81,VALID,0.339063,
2009-06-20, 02:18:04,VALID,1000.95,VALID,0,VALID,93.3255,VALID,0,VALID,22.6299,VALID,81,VALID,0.307813,
2009-06-20, 02:19:04,VALID,1000.93,VALID,0,VALID,93.4018,VALID,0,VALID,22.6104,VALID,81,VALID,0.324609,
2009-06-20, 02:20:04,VALID,1000.91,VALID,0,VALID,93.4018,VALID,0,VALID,22.5892,VALID,81,VALID,0.389062,
2009-06-20, 02:21:04,VALID,1000.94,VALID,0,VALID,93.4094,VALID,0,VALID,22.6087,VALID,81,VALID,0.382813,
2009-06-20, 02:22:04,VALID,1000.91,VALID,0,VALID,93.4323,VALID,0,VALID,22.6104,VALID,81,VALID,0.33125,
2009-06-20, 02:23:04,VALID,1000.94,VALID,0,VALID,93.4476,VALID,0,VALID,22.6104,VALID,81,VALID,0.347266,
2009-06-20, 02:24:04,VALID,1000.91,VALID,0,VALID,93.4094,VALID,0,VALID,22.5909,VALID,81,VALID,0.306641,
2009-06-20, 02:25:04,VALID,1000.89,VALID,0,VALID,93.356,VALID,0,VALID,22.5909,VALID,81,VALID,0.178906,
2009-06-20, 02:26:04,VALID,1000.9,VALID,0,VALID,93.3408,VALID,0,VALID,22.5519,VALID,81,VALID,0.374219,
2009-06-20, 02:27:04,VALID,1000.94,VALID,0,VALID,93.295,VALID,0,VALID,22.5323,VALID,81,VALID,0.535547,
2009-06-20, 02:28:04,VALID,1000.92,VALID,0,VALID,93.4476,VALID,0,VALID,22.5111,VALID,81,VALID,0.512891,
2009-06-20, 02:29:04,VALID,1000.94,VALID,0,VALID,93.5086,VALID,0,VALID,22.5111,VALID,81,VALID,0.448047,
2009-06-20, 02:30:04,VALID,1000.93,VALID,0,VALID,93.5849,VALID,0,VALID,22.5519,VALID,81,VALID,0.498047,
2009-06-20, 02:31:04,VALID,1000.95,VALID,0,VALID,93.562,VALID,0,VALID,22.5501,VALID,81,VALID,0.468359,
2009-06-20, 02:32:04,VALID,1000.99,VALID,0,VALID,93.4781,VALID,0,VALID,22.5501,VALID,77,VALID,0.467578,
2009-06-20, 02:33:04,VALID,1001,VALID,0,VALID,93.4094,VALID,0,VALID,22.5501,VALID,77,VALID,0.288281,
2009-06-20, 02:34:04,VALID,1001.02,VALID,0,VALID,93.3637,VALID,0,VALID,22.5501,VALID,77,VALID,0.204688,
2009-06-20, 02:35:04,VALID,1001.05,VALID,0,VALID,93.3026,VALID,0,VALID,22.5501,VALID,77,VALID,0.267578,
2009-06-20, 02:36:04,VALID,1001.08,VALID,0,VALID,93.295,VALID,0,VALID,22.5714,VALID,77,VALID,0.341406,
2009-06-20, 02:37:04,VALID,1001.06,VALID,0,VALID,93.3255,VALID,0,VALID,22.5306,VALID,77,VALID,0.371094,
2009-06-20, 02:38:04,VALID,1001.09,VALID,0,VALID,93.3713,VALID,0,VALID,22.5501,VALID,16,VALID,0.433984,
2009-06-20, 02:39:04,VALID,1001.09,VALID,0,VALID,93.4247,VALID,0,VALID,22.5519,VALID,13,VALID,0.613672,
2009-06-20, 02:40:04,VALID,1001.1,VALID,0,VALID,93.4476,VALID,0,VALID,22.5696,VALID,350,VALID,0.573828,
2009-06-20, 02:41:04,VALID,1001.11,VALID,0,VALID,93.4934,VALID,0,VALID,22.5909,VALID,350,VALID,0.576563,
2009-06-20, 02:42:04,VALID,1001.15,VALID,0,VALID,93.4781,VALID,0,VALID,22.5696,VALID,350,VALID,0.504687,
2009-06-20, 02:43:04,VALID,1001.16,VALID,0,VALID,93.4781,VALID,0,VALID,22.5909,VALID,350,VALID,0.300391,
2009-06-20, 02:44:04,VALID,1001.2,VALID,0,VALID,93.44,VALID,0,VALID,22.5696,VALID,350,VALID,0,
2009-06-20, 02:45:04,VALID,1001.22,VALID,0,VALID,93.4018,VALID,0,VALID,22.5696,VALID,350,VALID,0,
2009-06-20, 02:46:04,VALID,1001.24,VALID,0,VALID,93.44,VALID,0,VALID,22.5909,VALID,350,VALID,0,
2009-06-20, 02:47:04,VALID,1001.23,VALID,0,VALID,93.4323,VALID,0,VALID,22.5501,VALID,350,VALID,0,
2009-06-20, 02:48:04,VALID,1001.26,VALID,0,VALID,93.4476,VALID,0,VALID,22.5714,VALID,350,VALID,0.280859,
2009-06-20, 02:49:04,VALID,1001.27,VALID,0,VALID,93.501,VALID,0,VALID,22.5714,VALID,350,VALID,0.4875,
2009-06-20, 02:50:04,VALID,1001.3,VALID,0,VALID,93.5163,VALID,0,VALID,22.5714,VALID,350,VALID,0.613281,
2009-06-20, 02:51:04,VALID,1001.25,VALID,0,VALID,93.4552,VALID,0,VALID,22.5696,VALID,35,VALID,0.830078,
2009-06-20, 02:52:04,VALID,1001.26,VALID,0,VALID,93.3331,VALID,0,VALID,22.5714,VALID,35,VALID,0.949219,
2009-06-20, 02:53:04,VALID,1001.23,VALID,0,VALID,93.1653,VALID,0,VALID,22.5501,VALID,35,VALID,0.833203,
2009-06-20, 02:54:04,VALID,1001.23,VALID,0,VALID,93.0661,VALID,0,VALID,22.5519,VALID,38,VALID,0.740625,
2009-06-20, 02:55:04,VALID,1001.21,VALID,0,VALID,93.089,VALID,0,VALID,22.5306,VALID,39,VALID,0.771875,
2009-06-20, 02:56:04,VALID,1001.18,VALID,0,VALID,93.1043,VALID,0,VALID,22.5306,VALID,39,VALID,0.626172,
2009-06-20, 02:57:04,VALID,1001.18,VALID,0,VALID,93.0051,VALID,0,VALID,22.5128,VALID,39,VALID,0.463672,
2009-06-20, 02:58:04,VALID,1001.17,VALID,0,VALID,93.0203,VALID,0,VALID,22.4916,VALID,39,VALID,0.351953,
2009-06-20, 02:59:04,VALID,1001.14,VALID,0,VALID,93.089,VALID,0,VALID,22.4721,VALID,39,VALID,0.395703,
2009-06-20, 03:00:04,VALID,1001.17,VALID,0,VALID,93.1729,VALID,0,VALID,22.4721,VALID,39,VALID,0.253516,
2009-06-20, 03:01:04,VALID,1001.14,VALID,0,VALID,93.2111,VALID,0,VALID,22.4721,VALID,39,VALID,0.151172,
2009-06-20, 03:02:04,VALID,1001.12,VALID,0,VALID,93.2492,VALID,0,VALID,22.4933,VALID,39,VALID,0.194141,
2009-06-20, 03:03:04,VALID,1001.13,VALID,0,VALID,93.2797,VALID,0,VALID,22.4526,VALID,39,VALID,0.147656,
2009-06-20, 03:04:04,VALID,1001.1,VALID,0,VALID,93.3103,VALID,0,VALID,22.4526,VALID,39,VALID,0.125781,
2009-06-20, 03:05:04,VALID,1001.09,VALID,0,VALID,93.3408,VALID,0,VALID,22.4526,VALID,39,VALID,0.171875,
2009-06-20, 03:06:04,VALID,1001.09,VALID,0,VALID,93.3866,VALID,0,VALID,22.4526,VALID,39,VALID,0.149219,
2009-06-20, 03:07:04,VALID,1001.09,VALID,0,VALID,93.3942,VALID,0,VALID,22.4738,VALID,39,VALID,0.553516,
2009-06-20, 03:08:04,VALID,1001.11,VALID,0,VALID,93.4094,VALID,0,VALID,22.4526,VALID,39,VALID,0.478125,
2009-06-20, 03:09:04,VALID,1001.09,VALID,0,VALID,93.4094,VALID,0,VALID,22.4526,VALID,39,VALID,0.432031,
2009-06-20, 03:10:04,VALID,1001.09,VALID,0,VALID,93.356,VALID,0,VALID,22.4526,VALID,39,VALID,0.590234,
2009-06-20, 03:11:04,VALID,1001.07,VALID,0,VALID,93.3179,VALID,0,VALID,22.4916,VALID,39,VALID,0.644922,
2009-06-20, 03:12:04,VALID,1001.07,VALID,0,VALID,93.234,VALID,0,VALID,22.4721,VALID,52,VALID,0.611719,
2009-06-20, 03:13:04,VALID,1001.03,VALID,0,VALID,93.2263,VALID,0,VALID,22.4721,VALID,59,VALID,0.642187,
2009-06-20, 03:14:04,VALID,1001.03,VALID,0,VALID,93.234,VALID,0,VALID,22.4916,VALID,59,VALID,0.516406,
2009-06-20, 03:15:04,VALID,1001,VALID,0,VALID,93.1348,VALID,0,VALID,22.4916,VALID,59,VALID,0.436328,
2009-06-20, 03:16:04,VALID,1001,VALID,0,VALID,93.1271,VALID,0,VALID,22.5111,VALID,59,VALID,0.332812,
2009-06-20, 03:17:04,VALID,1000.99,VALID,0,VALID,93.1119,VALID,0,VALID,22.4916,VALID,59,VALID,0.487891,
2009-06-20, 03:18:04,VALID,1000.97,VALID,0,VALID,93.2034,VALID,0,VALID,22.4916,VALID,59,VALID,0.387891,
2009-06-20, 03:19:04,VALID,1000.96,VALID,0,VALID,93.2416,VALID,0,VALID,22.4721,VALID,59,VALID,0.510938,
2009-06-20, 03:20:04,VALID,1000.94,VALID,0,VALID,93.2568,VALID,0,VALID,22.4916,VALID,59,VALID,0.590234,
2009-06-20, 03:21:04,VALID,1000.92,VALID,0,VALID,93.2492,VALID,0.112286,VALID,22.4916,VALID,54,VALID,0.639453,
2009-06-20, 03:22:04,VALID,1000.91,VALID,0,VALID,93.2416,VALID,0,VALID,22.4721,VALID,52,VALID,0.767187,
2009-06-20, 03:23:04,VALID,1000.91,VALID,0,VALID,93.2645,VALID,0,VALID,22.4526,VALID,50,VALID,0.737891,
2009-06-20, 03:24:04,VALID,1000.9,VALID,0,VALID,93.4018,VALID,0,VALID,22.4526,VALID,47,VALID,0.677734,
2009-06-20, 03:25:04,VALID,1000.87,VALID,0,VALID,93.356,VALID,0,VALID,22.4314,VALID,47,VALID,0.711719,
2009-06-20, 03:26:04,VALID,1000.91,VALID,0,VALID,93.4094,VALID,0,VALID,22.4526,VALID,42,VALID,0.677344,
2009-06-20, 03:27:04,VALID,1000.85,VALID,0,VALID,93.2645,VALID,0,VALID,22.4331,VALID,42,VALID,0.636328,
2009-06-20, 03:28:04,VALID,1000.87,VALID,0,VALID,93.1119,VALID,0,VALID,22.3941,VALID,42,VALID,0.588672,
2009-06-20, 03:29:04,VALID,1000.84,VALID,0,VALID,93.15,VALID,0,VALID,22.3941,VALID,42,VALID,0.501562,
2009-06-20, 03:30:04,VALID,1000.87,VALID,0,VALID,93.1195,VALID,0,VALID,22.3551,VALID,42,VALID,0.492188,
2009-06-20, 03:31:04,VALID,1000.88,VALID,0,VALID,93.2797,VALID,0,VALID,22.3339,VALID,42,VALID,0.478516,
2009-06-20, 03:32:04,VALID,1000.89,VALID,0,VALID,93.3408,VALID,0,VALID,22.3356,VALID,42,VALID,0.471875,
2009-06-20, 03:33:04,VALID,1000.9,VALID,0,VALID,93.295,VALID,0,VALID,22.3356,VALID,31,VALID,0.616797,
2009-06-20, 03:34:04,VALID,1000.9,VALID,0,VALID,93.4018,VALID,0,VALID,22.3356,VALID,31,VALID,0.522656,
2009-06-20, 03:35:04,VALID,1000.95,VALID,0,VALID,93.3103,VALID,0,VALID,22.3356,VALID,31,VALID,0.546484,
2009-06-20, 03:36:04,VALID,1000.92,VALID,0,VALID,93.4247,VALID,0.112286,VALID,22.3144,VALID,22,VALID,0.661719,
2009-06-20, 03:37:04,VALID,1000.94,VALID,0,VALID,93.4018,VALID,0,VALID,22.3356,VALID,7,VALID,0.721094,
2009-06-20, 03:38:04,VALID,1000.99,VALID,0,VALID,93.3866,VALID,0,VALID,22.3551,VALID,5,VALID,0.451562,
2009-06-20, 03:39:04,VALID,1000.97,VALID,0,VALID,93.4094,VALID,0,VALID,22.3551,VALID,5,VALID,0.592969,
2009-06-20, 03:40:04,VALID,1000.99,VALID,0,VALID,93.4247,VALID,0,VALID,22.3763,VALID,5,VALID,0.669141,
2009-06-20, 03:41:04,VALID,1000.99,VALID,0,VALID,93.3713,VALID,0,VALID,22.3551,VALID,5,VALID,0.716016,
2009-06-20, 03:42:04,VALID,1000.99,VALID,0,VALID,93.3484,VALID,0,VALID,22.3551,VALID,5,VALID,0.606641,
2009-06-20, 03:43:04,VALID,1000.97,VALID,0,VALID,93.3637,VALID,0,VALID,22.3356,VALID,5,VALID,0.590625,
2009-06-20, 03:44:04,VALID,1001,VALID,0,VALID,93.4552,VALID,0,VALID,22.3356,VALID,5,VALID,0.629297,
2009-06-20, 03:45:04,VALID,1000.95,VALID,0,VALID,93.5163,VALID,0,VALID,22.3551,VALID,5,VALID,0.569922,
2009-06-20, 03:46:04,VALID,1000.95,VALID,0,VALID,93.5163,VALID,0,VALID,22.3551,VALID,5,VALID,0.623828,
2009-06-20, 03:47:04,VALID,1000.95,VALID,0,VALID,93.4934,VALID,0,VALID,22.3551,VALID,5,VALID,0.621094,